Theta_e
302 302 302 302 301 300 299 298 298 297 296 296 295 294 292 291 290 289 289 289 288 288 288 287 288 289 290 291 292 293 294 295
301 301 301 300 299 299 297 297 296 296 296 295 294 292 291 290 289 289 289 288 288 287 287 287 287 287 288 289 290 292 293 295
300 300 300 300 298 297 296 295 295 295 295 294 293 291 290 289 289 288 288 287 287 287 286 286 286 286 287 288 289 290 292 293
300 299 298 298 297 296 295 295 294 294 293 293 292 290 288 289 289 288 287 286 286 286 285 285 285 286 286 286 288 289 290 292
300 298 297 297 296 296 295 294 293 292 292 292 290 287 287 286 287 287 287 286 285 286 285 284 284 285 285 286 286 287 288 289
299 298 297 296 295 295 294 293 291 291 291 290 288 286 285 285 285 285 286 285 284 284 284 284 284 284 284 284 284 286 285 287
299 298 296 295 295 294 293 292 290 289 289 287 286 284 283 283 283 283 283 283 283 283 283 283 283 283 283 283 283 284 284 285
298 297 294 293 293 293 292 291 289 288 287 286 282 282 282 282 282 282 282 281 281 281 281 282 282 282 282 282 282 282 282 283
298 296 293 291 292 292 292 290 289 288 287 283 282 282 281 281 281 281 281 280 279 279 279 280 281 282 282 281 281 280 281 281
298 295 292 291 291 291 291 290 288 287 286 284 283 283 282 281 280 280 280 280 279 278 278 279 279 280 280 280 280 280 279 280
295 293 292 291 291 290 290 289 288 285 284 284 284 283 282 281 280 280 280 280 279 278 277 277 278 278 278 279 279 279 279 278
293 292 291 290 289 289 289 288 284 284 284 284 285 284 283 281 280 279 280 280 280 278 277 277 277 277 277 277 277 278 278 278
289 290 289 287 286 285 287 288 286 285 285 285 285 285 283 282 280 279 279 280 280 280 279 277 276 276 276 277 277 277 277 277
289 288 288 288 287 284 284 286 287 287 286 285 285 285 284 283 281 279 279 280 280 280 280 279 277 276 276 276 276 276 277 277
289 287 286 288 288 287 285 285 285 287 287 286 285 284 285 283 282 279 278 279 280 280 280 279 279 277 277 276 276 276 277 277
290 288 286 286 287 288 288 287 286 286 286 286 285 283 282 281 280 278 277 278 279 279 280 280 279 278 278 277 277 276 276 276
292 288 288 286 287 287 288 287 287 286 286 285 284 283 282 281 279 278 277 277 278 278 278 278 278 278 278 277 277 277 277 276
293 289 288 288 287 286 287 287 287 287 287 285 284 283 282 280 278 278 278 278 278 278 278 278 278 278 278 277 277 277 277 277
293 291 288 288 288 286 286 287 287 287 286 285 283 282 281 280 279 279 278 278 278 278 278 278 278 278 277 277 277 277 277 277
Wind_Speed
20 24 23 20 17 15 14 13 11 10 11 11 13 15 15 16 17 19 19 20 21 21 21 21 22 24 21 22 21 22 22 24
21 24 24 21 17 15 14 13 12 10 9 8 11 16 17 18 16 18 20 23 23 25 23 22 23 21 20 21 20 19 21 23
14 22 21 18 17 15 14 15 13 12 12 11 8 8 14 16 16 18 20 22 22 20 24 24 22 22 22 23 21 21 15 21
10 15 21 19 17 15 14 14 14 14 12 10 8 8 11 15 17 18 19 21 21 20 23 23 22 21 20 21 21 19 17 20
10 15 19 19 18 15 14 13 14 13 11 12 12 13 10 11 12 13 16 19 21 21 20 22 20 20 22 20 20 19 20 18
9 12 20 21 19 17 15 14 14 13 12 12 12 13 11 10 11 13 13 17 19 20 19 19 21 19 20 20 22 21 21 15
10 13 18 23 20 16 14 13 14 12 11 11 12 12 10 11 13 15 16 17 18 19 20 21 20 20 20 19 19 18 20 20
10 12 14 18 20 17 14 13 14 12 12 12 14 14 15 14 14 15 16 19 20 20 20 20 20 19 16 19 21 20 21 20
12 15 15 17 21 17 15 13 14 12 11 13 12 13 16 16 15 15 15 16 18 19 20 19 18 19 19 19 22 24 24 25
11 14 19 21 21 19 15 15 13 11 12 11 12 12 15 16 16 16 15 15 15 21 22 21 19 20 22 23 24 25 23 25
8 12 17 18 18 18 15 13 12 12 12 11 11 10 12 15 16 15 14 14 17 21 24 23 22 22 23 25 27 26 27 27
10 14 20 21 19 18 16 16 16 15 13 12 11 10 9 12 16 14 13 13 16 21 24 25 25 24 24 26 28 28 29 29
7 16 21 22 21 19 18 18 17 15 14 12 11 10 9 9 13 13 11 14 15 16 22 25 24 25 25 27 29 28 29 29
10 13 15 19 20 19 18 17 16 15 14 13 10 8 10 8 8 11 11 12 15 15 18 21 24 22 25 27 27 27 29 31
11 8 13 21 23 22 20 18 16 17 14 13 13 10 11 8 6 7 11 12 15 16 16 18 20 21 22 26 27 28 30 30
13 12 13 19 22 21 19 20 18 17 14 14 14 13 12 9 8 8 10 11 13 15 16 16 17 18 19 22 26 30 30 29
13 12 17 18 20 22 21 21 21 18 16 15 16 16 12 10 9 10 11 14 16 18 18 18 18 18 16 17 22 25 27 30
15 14 19 20 21 23 22 24 20 19 18 17 19 16 13 11 12 12 12 14 15 18 18 19 19 17 15 17 18 21 23 22
12 17 19 21 24 23 24 22 21 20 19 20 20 17 14 13 12 12 13 14 15 15 16 17 17 16 14 15 15 22 22 21
Wind_Direction
138 134 128 123 115 104 99 97 93 99 98 92 77 66 59 50 45 39 33 25 18 14 10 4 0 360 355 348 340 337 327 318
135 131 129 122 111 103 94 90 84 99 110 89 66 65 61 54 52 46 37 29 25 21 14 12 10 0 349 347 342 339 334 332
132 132 131 122 115 107 100 90 83 81 87 89 95 87 67 59 51 46 38 29 28 19 20 17 9 4 358 354 350 342 337 336
139 128 129 128 122 116 105 92 90 86 88 98 95 80 58 46 42 42 39 31 30 29 20 17 12 10 2 358 354 352 335 334
136 136 135 136 127 124 107 98 88 84 81 81 77 71 61 42 41 42 42 30 31 32 30 17 17 14 7 5 356 0 352 338
138 144 135 142 137 128 114 99 84 80 81 78 73 63 57 52 46 43 41 30 30 31 33 27 23 24 12 7 9 9 6 348
139 139 139 142 138 131 122 106 92 82 76 74 69 65 54 52 45 46 41 36 31 29 30 31 26 29 21 12 15 17 9 5
150 152 144 147 140 136 128 111 95 87 82 74 73 72 66 60 53 48 46 40 33 31 30 28 29 30 31 24 28 24 17 9
167 165 155 143 144 148 139 123 114 104 93 93 86 75 65 63 62 59 55 49 42 42 40 39 37 38 38 39 40 33 27 30
166 150 156 154 149 145 147 137 122 116 114 119 94 78 70 64 67 64 60 56 51 52 47 44 43 45 46 46 45 42 26 26
146 150 158 155 151 148 148 138 130 129 130 130 112 94 77 68 66 67 64 63 59 57 53 48 48 48 49 48 47 46 41 26
162 156 162 160 157 153 150 145 137 135 135 133 124 113 95 75 65 65 68 67 64 61 59 52 51 51 52 53 50 46 43 35
152 156 161 164 159 156 160 155 153 146 136 129 123 124 120 89 69 62 73 72 69 66 61 56 52 54 54 57 56 50 44 36
162 158 164 166 163 155 153 157 162 163 155 144 134 131 145 118 87 63 75 79 75 71 65 57 50 54 60 59 59 54 52 46
163 158 168 171 171 166 160 152 154 155 157 157 136 136 142 139 125 80 73 84 86 78 75 64 53 47 56 63 61 58 55 50
173 168 173 171 174 173 175 172 157 153 150 154 151 145 140 133 123 105 87 88 87 83 80 74 61 52 46 56 62 58 54 52
173 172 174 177 180 177 175 176 171 164 157 153 154 155 150 140 127 117 97 90 86 79 71 68 60 54 49 50 57 55 54 50
176 181 178 178 179 179 178 179 174 179 175 163 163 162 155 143 128 118 107 97 91 83 74 64 63 58 54 51 52 52 50 49
178 177 176 177 180 182 174 172 174 173 170 170 170 168 159 149 141 122 112 102 91 85 81 77 68 58 55 52 52 59 57 49